Budapest Ferihegy, Hungary

6:59 AM CET on March 25, 2017 (GMT +0100)
Ferihegy

Weather History for LHBP - October, 2013

Change the Weather History Date:

Friday, October 11, 2013

  Actual Average Record
Temperature  
Mean Temperature 61 °F -  
Max Temperature 71 °F 54 °F 75 °F (2014)
Min Temperature 51 °F 37 °F 33 °F (2010)
Degree Days  
Heating Degree Days 4    
Growing Degree Days 11 (Base 50)    
Moisture  
Dew Point 54 °F    
Average Humidity 80    
Maximum Humidity 100    
Minimum Humidity 57    
Precipitation  
Precipitation 0.00 in - - ()
Sea Level Pressure  
Sea Level Pressure 29.99 in    
Wind  
Wind Speed 11 mph ()    
Max Wind Speed 16 mph    
Max Gust Speed -    
Visibility 3.6 miles    
Events Thunderstorm    
Averages and records for this station are not official NWS values.
T = Trace of Precipitation, MM = Missing Value Source: Averaged Metar Reports

Daily Weather History Graph

Daily Weather History Graph

Search for Another Location

Airport or City:

Trip Planner

Search our weather history database for the weather conditions in past years. The results will help you decide how hot, cold, wet, or windy it might be!

Date:

Astronomy

Oct. 11, 2013 Rise Set
Actual Time 6:55 AM CEST 6:02 PM CEST
Civil Twilight 6:24 AM CEST 6:33 PM CEST
Nautical Twilight 5:49 AM CEST 7:08 PM CEST
Astronomical Twilight 5:13 AM CEST 7:44 PM CEST
Moon 1:37 PM CEST (10/11) 11:14 PM CEST (10/11)
Length of Visible Light 12h 08m
Length of Day
11h 06m
Waxing Crescent, 44% of the Moon is Illuminated
Oct 11
Waxing Crescent
Oct 12
First Quarter
Oct 19
Full
Oct 27
Last Quarter
Nov 3
New

Hourly Weather History & Observations

Time (CEST) Temp. Dew Point Humidity Pressure Visibility Wind Dir Wind Speed Gust Speed Precip Events Conditions
12:00 AM 53.6 °F 51.8 °F 94% 29.95 in 3.1 mi East 12.7 mph - N/A   Mist
12:30 AM 53.6 °F 51.8 °F 94% 29.95 in 3.1 mi East 15.0 mph - N/A   Overcast
1:00 AM 53.6 °F 51.8 °F 94% 29.95 in 2.5 mi East 9.2 mph - N/A   Mostly Cloudy
1:30 AM 53.6 °F 51.8 °F 94% 29.95 in 1.9 mi East 10.4 mph - N/A   Mostly Cloudy
2:00 AM 55.4 °F 53.6 °F 94% 29.95 in 1.9 mi East 10.4 mph - N/A   Mostly Cloudy
2:30 AM 53.6 °F 53.6 °F 100% 29.95 in 1.9 mi East 12.7 mph - N/A   Mostly Cloudy
3:00 AM 53.6 °F 53.6 °F 100% 29.95 in 1.9 mi East 12.7 mph - N/A   Mostly Cloudy
3:30 AM 53.6 °F 53.6 °F 100% 29.95 in 1.9 mi East 15.0 mph - N/A   Mostly Cloudy
4:00 AM 53.6 °F 53.6 °F 100% 29.95 in 1.9 mi East 11.5 mph - N/A   Mostly Cloudy
4:30 AM 53.6 °F 53.6 °F 100% 29.95 in 1.9 mi East 12.7 mph - N/A   Mostly Cloudy
5:00 AM 53.6 °F 53.6 °F 100% 29.98 in 2.5 mi East 10.4 mph - N/A   Mostly Cloudy
5:30 AM 53.6 °F 53.6 °F 100% 29.95 in 3.1 mi East 10.4 mph - N/A   Mostly Cloudy
6:00 AM 53.6 °F 51.8 °F 94% 29.95 in 3.1 mi ENE 10.4 mph - N/A   Mostly Cloudy
6:30 AM 53.6 °F 51.8 °F 94% 29.95 in 3.1 mi ENE 9.2 mph - N/A   Mostly Cloudy
7:00 AM 53.6 °F 51.8 °F 94% 29.98 in - East 11.5 mph - N/A   Overcast
7:30 AM 51.8 °F 51.8 °F 100% 29.95 in - East 12.7 mph - N/A   Overcast
8:00 AM 53.6 °F 51.8 °F 94% 29.98 in - East 15.0 mph - N/A   Overcast
8:30 AM 53.6 °F 53.6 °F 100% 29.98 in - East 13.8 mph - N/A   Mostly Cloudy
9:00 AM 55.4 °F 53.6 °F 94% 29.98 in - East 15.0 mph - N/A   Mostly Cloudy
9:30 AM 55.4 °F 53.6 °F 94% 30.01 in 2.8 mi East 12.7 mph - N/A   Mostly Cloudy
10:00 AM 59.0 °F 53.6 °F 82% 30.01 in 3.1 mi East 12.7 mph - N/A   Scattered Clouds
10:30 AM 60.8 °F 53.6 °F 77% 30.01 in 3.7 mi East 16.1 mph - N/A   Mostly Cloudy
11:00 AM 60.8 °F 53.6 °F 77% 30.01 in 5.0 mi East 15.0 mph - N/A   Unknown
11:30 AM 62.6 °F 55.4 °F 77% 30.01 in - East 15.0 mph - N/A   Clear
12:00 PM 64.4 °F 55.4 °F 73% 30.01 in - East 16.1 mph - N/A   Clear
12:30 PM 66.2 °F 55.4 °F 68% 30.01 in - East 16.1 mph - N/A   Clear
1:00 PM 68.0 °F 55.4 °F 64% 30.01 in - East 15.0 mph - N/A   Clear
1:30 PM 69.8 °F 57.2 °F 64% 30.01 in 6.2 mi East 16.1 mph - N/A   Mostly Cloudy
2:00 PM 69.8 °F 55.4 °F 60% 29.98 in - East 16.1 mph - N/A   Clear
2:30 PM 71.6 °F 55.4 °F 57% 29.98 in - East 13.8 mph - N/A   Clear
3:00 PM 71.6 °F 55.4 °F 57% 29.98 in - East 15.0 mph - N/A   Clear
3:30 PM 71.6 °F 55.4 °F 57% 29.98 in - East 16.1 mph - N/A   Clear
4:00 PM 71.6 °F 57.2 °F 60% 29.98 in - East 16.1 mph - N/A   Clear
4:30 PM 69.8 °F 55.4 °F 60% 29.98 in - ESE 13.8 mph - N/A   Clear
5:00 PM 69.8 °F 55.4 °F 60% 29.98 in - East 11.5 mph - N/A   Clear
5:30 PM 69.8 °F 55.4 °F 60% 29.98 in - East 9.2 mph - N/A   Clear
6:00 PM 68.0 °F 55.4 °F 64% 29.98 in - East 8.1 mph - N/A   Clear
6:30 PM 68.0 °F 55.4 °F 64% 29.98 in - East 9.2 mph - N/A   Clear
7:00 PM 68.0 °F 55.4 °F 64% 30.01 in - East 10.4 mph - N/A   Clear
7:30 PM 68.0 °F 55.4 °F 64% 30.01 in - East 9.2 mph - N/A   Clear
8:00 PM 66.2 °F 55.4 °F 68% 30.01 in - East 8.1 mph - N/A   Clear
8:30 PM 66.2 °F 55.4 °F 68% 30.01 in - East 5.8 mph - N/A   Clear
9:00 PM 66.2 °F 55.4 °F 68% 30.04 in 6.2 mi ENE 5.8 mph - N/A   Mostly Cloudy
9:30 PM 64.4 °F 53.6 °F 68% 30.04 in 6.2 mi ENE 4.6 mph - N/A   Mostly Cloudy
10:00 PM 64.4 °F 55.4 °F 73% 30.04 in 6.2 mi NE 5.8 mph - N/A   Scattered Clouds
10:30 PM 62.6 °F 53.6 °F 72% 30.06 in 6.2 mi East 4.6 mph - N/A   Scattered Clouds
11:00 PM 62.6 °F 55.4 °F 77% 30.06 in - Variable 2.3 mph - N/A   Clear
11:30 PM 60.8 °F 55.4 °F 82% 30.06 in 6.2 mi NNW 6.9 mph - N/A Thunderstorm Unknown